Wind From: 11-12-2017 12:03 Until: 12-12-2017 06:00 warning for: Wind Level: Orange info button

Power and phone distribution networks may be disrupted for relatively long periods., Roofs and chimneys can be damaged. , Tree branches may break. , Vehicles can be deported. , Traffic may be disrupted, particularly on secondary roads in forest areas. Limit your trips. , Limit your speed in highway driving, especially if you drive a vehicle or hitch sensitive to wind. , Do not go for walks in forests or along the coast., In town, be vigilant against possible falling objects., Do not work on roofs and do not touch any electrical line fallen on the ground., Store or secure sensitive objects to wind or likely to be damaged., Always install power generators outside buildings. 


Meteo18 Weather Cam more information Meteo18 Weather Cam


Thunder radar more information blitzortung!


Rain radar more information rain snow radar


Visit our other weather sites:

Template documentation
and downloads

And another site



Weather Underground History page Text

Daily Summary for February 24, 2017 Units:  English    Metric   Both
« Previous Day
Next Day »
Daily Weekly Monthly Yearly Custom
  High: Low: Average:
Temperature: 46.9 °F 36.5 °F 42.3 °F
Dew Point: 39.9 °F 31.8 °F 35.8 °F
Humidity: 92 % 62 % 78 %
Wind Speed: 10 mph 0 mph 3.4 mph
Wind Gust: 17 mph - -
Wind:- - WNW
Pressure: 30.2 in 29.9 in -
Precipitation: 0 in    
Historical Graphs
 
 
Tabular Data for February 24, 2017
Time Temperature Dew Point Pressure Wind Wind Speed Wind Gust Humidity Rainfall Rate (Hourly)
00:02 45.3 °F 39.6 °F 29.9 in NW 5 mph 11 mph 80 % 0 in
00:07 45.1 °F 39.7 °F 29.9 in West 8 mph 8 mph 81 % 0 in
00:17 45.1 °F 39.4 °F 29.9 in WNW 6 mph 11 mph 80 % 0 in
00:22 45.1 °F 39.4 °F 29.9 in West 4 mph 14 mph 80 % 0 in
00:27 44.8 °F 39.4 °F 29.9 in WSW 2 mph 14 mph 81 % 0 in
00:32 44.8 °F 39.4 °F 29.9 in WNW 10 mph 13 mph 81 % 0 in
00:37 44.4 °F 39 °F 29.9 in West 3 mph 13 mph 81 % 0 in
00:42 44.2 °F 38.8 °F 29.9 in Calm   13 mph 81 % 0 in
00:47 44.1 °F 38.8 °F 29.9 in WNW 1 mph 13 mph 82 % 0 in
00:52 43.9 °F 38.7 °F 29.9 in West 5 mph 13 mph 82 % 0 in
00:57 43.9 °F 38.5 °F 29.9 in WNW 3 mph 9 mph 81 % 0 in
01:02 43.9 °F 38.1 °F 29.9 in NW 3 mph 9 mph 80 % 0 in
01:07 43.9 °F 38.1 °F 29.9 in WNW 7 mph 13 mph 80 % 0 in
01:17 43.5 °F 38.1 °F 29.9 in WNW 6 mph 12 mph 81 % 0 in
01:22 43.5 °F 38.1 °F 29.9 in WSW 4 mph 12 mph 81 % 0 in
01:32 43.3 °F 37.9 °F 29.9 in NW 3 mph 11 mph 81 % 0 in
01:37 43.3 °F 37.9 °F 29.9 in West 8 mph 14 mph 81 % 0 in
01:42 43.3 °F 37.9 °F 29.9 in West 9 mph 14 mph 81 % 0 in
01:47 43.2 °F 37.8 °F 29.9 in WNW 6 mph 14 mph 81 % 0 in
01:52 43.2 °F 37.8 °F 29.9 in WNW 3 mph 14 mph 81 % 0 in
02:02 43.2 °F 37.8 °F 29.9 in West 5 mph 11 mph 81 % 0 in
02:07 43 °F 37.6 °F 29.9 in North 6 mph 11 mph 81 % 0 in
02:12 43 °F 37.6 °F 29.9 in WNW 1 mph 11 mph 81 % 0 in
02:17 42.8 °F 37.4 °F 29.9 in WNW 6 mph 11 mph 81 % 0 in
02:22 42.8 °F 37.4 °F 30 in WNW 3 mph 11 mph 81 % 0 in
02:32 42.6 °F 37.2 °F 30 in West 6 mph 9 mph 81 % 0 in
02:42 42.6 °F 37.2 °F 30 in NW 7 mph 11 mph 81 % 0 in
02:47 42.4 °F 37.4 °F 30 in West 6 mph 13 mph 82 % 0 in
02:52 42.4 °F 37.4 °F 30 in WSW 1 mph 13 mph 82 % 0 in
03:02 42.3 °F 37.4 °F 30 in WNW 4 mph 13 mph 83 % 0 in
03:07 42.1 °F 37.2 °F 30 in NW 3 mph 13 mph 83 % 0 in
03:12 41.9 °F 37.4 °F 30 in NW 3 mph 13 mph 84 % 0 in
03:17 41.7 °F 37.2 °F 30 in WNW 2 mph 11 mph 84 % 0 in
03:22 41.7 °F 37.2 °F 30 in NW 2 mph 11 mph 84 % 0 in
03:27 41.7 °F 37.2 °F 30 in WNW 3 mph 10 mph 84 % 0 in
03:32 41.7 °F 37.6 °F 30 in Calm   10 mph 85 % 0 in
03:42 41.5 °F 37.4 °F 30 in West 4 mph 10 mph 85 % 0 in
03:47 41.4 °F 37.2 °F 30 in WNW 4 mph 7 mph 85 % 0 in
03:52 41.4 °F 37.6 °F 30 in NW 2 mph 7 mph 86 % 0 in
04:02 41.2 °F 37.4 °F 30 in West 2 mph 7 mph 86 % 0 in
04:07 41.2 °F 37.4 °F 30 in NW 1 mph 6 mph 86 % 0 in
04:12 41.2 °F 37.4 °F 30 in Calm   6 mph 86 % 0 in
04:17 41.2 °F 37.4 °F 30 in WNW 2 mph 6 mph 86 % 0 in
04:22 41.2 °F 37.4 °F 30 in NNW 1 mph 6 mph 86 % 0 in
04:27 41.2 °F 37.4 °F 30 in NW 4 mph 8 mph 86 % 0 in
04:32 41.2 °F 37.4 °F 30 in WNW 2 mph 8 mph 86 % 0 in
04:42 41.2 °F 37.6 °F 30 in West 3 mph 7 mph 87 % 0 in
04:47 41.2 °F 37.6 °F 30 in West 7 mph 8 mph 87 % 0 in
04:52 41 °F 37.4 °F 30 in WNW 4 mph 8 mph 87 % 0 in
04:57 40.8 °F 37.2 °F 30 in WNW 4 mph 8 mph 87 % 0 in
05:02 40.8 °F 37.2 °F 30 in WNW 1 mph 8 mph 87 % 0 in
05:07 40.6 °F 37 °F 30 in West 2 mph 8 mph 87 % 0 in
05:12 40.6 °F 37 °F 30 in West 2 mph 8 mph 87 % 0 in
05:17 40.5 °F 36.9 °F 30 in WNW 2 mph 8 mph 87 % 0 in
05:22 40.5 °F 36.9 °F 30 in WNW 2 mph 8 mph 87 % 0 in
05:32 40.1 °F 36.9 °F 30 in WNW 2 mph 5 mph 88 % 0 in
05:37 39.9 °F 36.7 °F 30 in West 1 mph 5 mph 88 % 0 in
05:42 39.7 °F 36.5 °F 30 in West 4 mph 5 mph 88 % 0 in
05:47 39.7 °F 36.5 °F 30 in NW 1 mph 7 mph 88 % 0 in
05:52 39.6 °F 36.5 °F 30 in WNW 5 mph 7 mph 89 % 0 in
05:57 39.6 °F 36.5 °F 30 in WNW 4 mph 7 mph 89 % 0 in
06:02 39.6 °F 36.5 °F 30 in West 1 mph 7 mph 89 % 0 in
06:12 39.2 °F 36.3 °F 30 in West 2 mph 9 mph 89 % 0 in
06:17 39 °F 36.1 °F 30 in West 1 mph 9 mph 89 % 0 in
06:22 39 °F 36.1 °F 30 in WNW 4 mph 9 mph 89 % 0 in
06:27 39 °F 36.1 °F 30 in NW 2 mph 5 mph 89 % 0 in
06:32 39 °F 36.1 °F 30 in WNW 2 mph 5 mph 89 % 0 in
06:37 38.8 °F 36 °F 30 in West 1 mph 5 mph 89 % 0 in
06:47 38.5 °F 35.8 °F 30 in WNW 3 mph 7 mph 90 % 0 in
06:52 38.5 °F 35.8 °F 30 in WNW 1 mph 7 mph 90 % 0 in
06:57 38.5 °F 35.8 °F 30 in WNW 2 mph 7 mph 90 % 0 in
07:02 38.3 °F 35.6 °F 30 in WNW 3 mph 7 mph 90 % 0 in
07:12 38.1 °F 35.8 °F 30 in NW 2 mph 7 mph 91 % 0 in
07:17 38.1 °F 35.8 °F 30 in WNW 1 mph 5 mph 91 % 0 in
07:22 38.1 °F 35.8 °F 30 in WNW 1 mph 5 mph 91 % 0 in
07:32 37.9 °F 35.6 °F 30 in WNW 4 mph 6 mph 91 % 0 in
07:37 37.9 °F 35.6 °F 30 in NW 2 mph 6 mph 91 % 0 in
07:42 37.9 °F 35.8 °F 30 in NW 4 mph 6 mph 92 % 0 in
07:47 37.8 °F 35.6 °F 30 in WNW 4 mph 6 mph 92 % 0 in
07:52 37.8 °F 35.6 °F 30 in NW 1 mph 6 mph 92 % 0 in
08:02 37.8 °F 35.6 °F 30 in NW 2 mph 6 mph 92 % 0 in
08:12 37.9 °F 35.8 °F 30 in WNW 3 mph 6 mph 92 % 0 in
08:17 37.9 °F 35.6 °F 30 in NNW 2 mph 7 mph 91 % 0 in
08:22 38.1 °F 35.8 °F 30 in NW 1 mph 7 mph 91 % 0 in
08:32 38.7 °F 36.3 °F 30 in Calm   7 mph 91 % 0 in
08:42 39 °F 36.3 °F 30 in West 2 mph 8 mph 90 % 0 in
08:52 39.6 °F 36.5 °F 30 in NNW 2 mph 9 mph 89 % 0 in
08:57 39.7 °F 36.7 °F 30 in NW 2 mph 10 mph 89 % 0 in
09:02 39.9 °F 36.9 °F 30 in WNW 6 mph 10 mph 89 % 0 in
09:12 40.3 °F 37 °F 30 in WNW 7 mph 9 mph 88 % 0 in
09:17 40.6 °F 37.4 °F 30.1 in West 2 mph 12 mph 88 % 0 in
09:22 40.8 °F 37.2 °F 30.1 in NW 4 mph 12 mph 87 % 0 in
09:32 41.4 °F 37.8 °F 30.1 in NW 3 mph 12 mph 87 % 0 in
09:37 41.5 °F 37.6 °F 30.1 in WNW 8 mph 9 mph 86 % 0 in
09:42 41.7 °F 37.8 °F 30.1 in West 2 mph 9 mph 86 % 0 in
09:52 42.1 °F 37.9 °F 30.1 in NNW 6 mph 10 mph 85 % 0 in
09:57 42.1 °F 37.9 °F 30.1 in WSW 7 mph 10 mph 85 % 0 in
10:02 42.3 °F 37.8 °F 30.1 in WNW 3 mph 10 mph 84 % 0 in
10:07 42.6 °F 38.1 °F 30.1 in Calm   9 mph 84 % 0 in
10:12 42.8 °F 37.9 °F 30.1 in WNW 5 mph 9 mph 83 % 0 in
10:17 43.2 °F 38.3 °F 30.1 in NW 2 mph 10 mph 83 % 0 in
10:22 43.3 °F 38.5 °F 30.1 in NW 6 mph 10 mph 83 % 0 in
10:32 43.5 °F 37.8 °F 30.1 in WNW 9 mph 9 mph 80 % 0 in
10:42 43.9 °F 38.1 °F 30.1 in WNW 4 mph 14 mph 80 % 0 in
10:52 44.1 °F 38.3 °F 30.1 in WNW 1 mph 13 mph 80 % 0 in
10:57 44.2 °F 38.1 °F 30.1 in WNW 2 mph 16 mph 79 % 0 in
11:02 44.2 °F 38.5 °F 30.1 in North 6 mph 16 mph 80 % 0 in
11:12 44.1 °F 37.6 °F 30.1 in NW 5 mph 12 mph 78 % 0 in
11:22 44.1 °F 37.6 °F 30.1 in WNW 4 mph 11 mph 78 % 0 in
11:32 44.8 °F 37.9 °F 30.1 in NW 2 mph 13 mph 77 % 0 in
11:37 44.8 °F 37.8 °F 30.1 in WNW 6 mph 13 mph 76 % 0 in
11:42 44.4 °F 37.4 °F 30.1 in NNW 6 mph 13 mph 76 % 0 in
11:52 44.6 °F 37.6 °F 30.1 in NW 7 mph 10 mph 76 % 0 in
11:57 44.8 °F 37.8 °F 30.1 in West 3 mph 12 mph 76 % 0 in
12:02 44.8 °F 37.8 °F 30.1 in West 3 mph 12 mph 76 % 0 in
12:12 46 °F 39.9 °F 30.1 in WNW 6 mph 13 mph 79 % 0 in
12:17 45.9 °F 38.3 °F 30.1 in NW 4 mph 12 mph 75 % 0 in
12:22 45.7 °F 37.2 °F 30.1 in WNW 7 mph 12 mph 72 % 0 in
12:27 46 °F 38.8 °F 30.1 in NNW 3 mph 12 mph 76 % 0 in
12:32 45.7 °F 37.2 °F 30.1 in NW 9 mph 12 mph 72 % 0 in
12:42 44.2 °F 36.5 °F 30.1 in WNW 4 mph 14 mph 74 % 0 in
12:47 44.4 °F 36.3 °F 30.1 in NW 3 mph 14 mph 73 % 0 in
12:52 45 °F 36.5 °F 30.1 in West 7 mph 13 mph 72 % 0 in
12:57 45.9 °F 37.4 °F 30.1 in WNW 6 mph 13 mph 72 % 0 in
13:02 46.2 °F 37 °F 30.1 in NNW 5 mph 13 mph 70 % 0 in
13:12 45.3 °F 34.7 °F 30.1 in NW 6 mph 13 mph 66 % 0 in
13:17 44.8 °F 34.9 °F 30.1 in NNW 5 mph 12 mph 68 % 0 in
13:22 45 °F 36.1 °F 30.1 in NW 3 mph 12 mph 71 % 0 in
13:27 45.7 °F 36.9 °F 30.1 in WNW 3 mph 12 mph 71 % 0 in
13:32 46 °F 36.1 °F 30.1 in WNW 5 mph 12 mph 68 % 0 in
13:37 46 °F 36.5 °F 30.1 in NW 3 mph 9 mph 69 % 0 in
13:42 45.7 °F 35.8 °F 30.1 in North 6 mph 9 mph 68 % 0 in
13:47 45.7 °F 34.5 °F 30.1 in West 8 mph 10 mph 65 % 0 in
13:52 45.5 °F 34.9 °F 30.1 in NW 8 mph 10 mph 66 % 0 in
13:57 45.3 °F 34.7 °F 30.1 in NW 5 mph 13 mph 66 % 0 in
14:02 45.9 °F 36.3 °F 30.1 in WSW 8 mph 13 mph 69 % 0 in
14:12 46.6 °F 35.1 °F 30.1 in NW 10 mph 11 mph 64 % 0 in
14:17 46 °F 34.2 °F 30.1 in NW 5 mph 15 mph 63 % 0 in
14:22 45.9 °F 34.7 °F 30.1 in NW 7 mph 15 mph 65 % 0 in
14:27 45.9 °F 35.6 °F 30.1 in NNW 5 mph 13 mph 67 % 0 in
14:32 45.7 °F 35.8 °F 30.1 in WNW 4 mph 13 mph 68 % 0 in
14:42 45.5 °F 35.2 °F 30.1 in NW 2 mph 12 mph 67 % 0 in
14:52 45.7 °F 35.4 °F 30.1 in NW 2 mph 12 mph 67 % 0 in
14:57 45.9 °F 35.1 °F 30.1 in NW 5 mph 13 mph 66 % 0 in
15:02 45.7 °F 34.5 °F 30.1 in NW 4 mph 13 mph 65 % 0 in
15:07 46 °F 34.9 °F 30.1 in North 9 mph 12 mph 65 % 0 in
15:12 46.4 °F 34.9 °F 30.1 in North 7 mph 12 mph 64 % 0 in
15:17 46.2 °F 34.7 °F 30.1 in WNW 5 mph 14 mph 64 % 0 in
15:22 46.4 °F 34.2 °F 30.1 in WNW 7 mph 14 mph 62 % 0 in
15:27 46.8 °F 34.9 °F 30.1 in WNW 10 mph 15 mph 63 % 0 in
15:32 46.9 °F 35.8 °F 30.1 in NW 6 mph 15 mph 65 % 0 in
15:42 46 °F 34.5 °F 30.1 in NNW 9 mph 15 mph 64 % 0 in
15:52 45.7 °F 34.5 °F 30.1 in NW 5 mph 17 mph 65 % 0 in
15:57 45.7 °F 35.1 °F 30.1 in North 3 mph 14 mph 66 % 0 in
16:02 45.7 °F 35.1 °F 30.1 in NNW 4 mph 14 mph 66 % 0 in
16:07 46 °F 35.2 °F 30.1 in WNW 5 mph 12 mph 66 % 0 in
16:12 46.2 °F 36 °F 30.1 in WNW 4 mph 12 mph 67 % 0 in
16:17 46.2 °F 35.1 °F 30.1 in NNW 1 mph 9 mph 65 % 0 in
16:22 45.9 °F 34.7 °F 30.1 in WNW 3 mph 9 mph 65 % 0 in
16:27 45.7 °F 35.4 °F 30.1 in NNW 6 mph 10 mph 67 % 0 in
16:32 45.5 °F 33.6 °F 30.1 in NW 7 mph 10 mph 63 % 0 in
16:42 45.3 °F 34.3 °F 30.1 in NNW 4 mph 10 mph 65 % 0 in
16:52 45.7 °F 34.2 °F 30.1 in WNW 4 mph 8 mph 64 % 0 in
16:57 45.9 °F 35.1 °F 30.1 in NW 2 mph 10 mph 66 % 0 in
17:02 45.7 °F 35.1 °F 30.1 in WNW 4 mph 10 mph 66 % 0 in
17:12 45.5 °F 34.3 °F 30.1 in NW 6 mph 7 mph 65 % 0 in
17:17 45.7 °F 33.8 °F 30.1 in NW 2 mph 13 mph 63 % 0 in
17:22 45.7 °F 34.2 °F 30.1 in NW 3 mph 13 mph 64 % 0 in
17:27 45.7 °F 34.2 °F 30.1 in NW 2 mph 13 mph 64 % 0 in
17:32 45.5 °F 34.3 °F 30.1 in NW 8 mph 13 mph 65 % 0 in
17:37 45.3 °F 34.7 °F 30.1 in WNW 7 mph 11 mph 66 % 0 in
17:42 45.7 °F 35.1 °F 30.1 in WNW 2 mph 11 mph 66 % 0 in
17:52 45.5 °F 34.9 °F 30.1 in WNW 2 mph 10 mph 66 % 0 in
17:57 45.3 °F 34.3 °F 30.1 in NNW 3 mph 11 mph 65 % 0 in
18:02 45.3 °F 35.1 °F 30.1 in WNW 3 mph 11 mph 67 % 0 in
18:12 45.1 °F 34.9 °F 30.1 in NNW 3 mph 11 mph 67 % 0 in
18:17 45 °F 35.1 °F 30.1 in NNW 2 mph 8 mph 68 % 0 in
18:22 44.8 °F 34.5 °F 30.1 in NW 3 mph 8 mph 67 % 0 in
18:32 44.4 °F 34.9 °F 30.1 in NW 4 mph 9 mph 69 % 0 in
18:42 44.2 °F 35.1 °F 30.1 in NNW 6 mph 7 mph 70 % 0 in
18:47 44.1 °F 34.9 °F 30.1 in NW 4 mph 7 mph 70 % 0 in
18:52 43.9 °F 35.1 °F 30.2 in NW 3 mph 10 mph 71 % 0 in
18:57 43.5 °F 35.1 °F 30.2 in NNE 4 mph 8 mph 72 % 0 in
19:02 43.2 °F 35.1 °F 30.2 in North 4 mph 8 mph 73 % 0 in
19:12 42.6 °F 34.9 °F 30.2 in North 4 mph 5 mph 74 % 0 in
19:17 42.4 °F 34.7 °F 30.2 in North 3 mph 7 mph 74 % 0 in
19:22 42.3 °F 34.5 °F 30.2 in NNW 3 mph 7 mph 74 % 0 in
19:32 41.7 °F 34 °F 30.2 in NNW 2 mph 5 mph 74 % 0 in
19:37 41.5 °F 33.8 °F 30.2 in NNW 1 mph 4 mph 74 % 0 in
19:42 41.4 °F 33.6 °F 30.2 in NNW 1 mph 4 mph 74 % 0 in
19:47 41.2 °F 33.4 °F 30.2 in NNW 2 mph 4 mph 74 % 0 in
19:52 41 °F 33.4 °F 30.2 in North 2 mph 4 mph 74 % 0 in
19:57 40.8 °F 33.4 °F 30.2 in NNW 1 mph 4 mph 75 % 0 in
20:02 40.6 °F 33.6 °F 30.2 in Calm   4 mph 76 % 0 in
20:12 40.5 °F 33.4 °F 30.2 in WNW 1 mph 3 mph 76 % 0 in
20:22 40.5 °F 33.4 °F 30.2 in WNW 2 mph 2 mph 76 % 0 in
20:27 40.5 °F 33.4 °F 30.2 in WNW 1 mph 3 mph 76 % 0 in
20:32 40.3 °F 33.3 °F 30.2 in NW 1 mph 3 mph 76 % 0 in
20:37 40.3 °F 33.3 °F 30.2 in Calm   2 mph 76 % 0 in
20:42 40.1 °F 33.1 °F 30.2 in Calm   2 mph 76 % 0 in
20:47 39.9 °F 32.9 °F 30.2 in Calm   1 mph 76 % 0 in
20:52 39.9 °F 32.9 °F 30.2 in Calm   1 mph 76 % 0 in
20:57 39.9 °F 32.9 °F 30.2 in NNW 1 mph 2 mph 76 % 0 in
21:02 39.7 °F 33.1 °F 30.2 in NNW 1 mph 2 mph 77 % 0 in
21:07 39.4 °F 33.1 °F 30.2 in NNW 1 mph 3 mph 78 % 0 in
21:12 39 °F 32.7 °F 30.2 in NNW 2 mph 3 mph 78 % 0 in
21:17 39 °F 33.1 °F 30.2 in NNW 1 mph 3 mph 79 % 0 in
21:22 38.8 °F 32.9 °F 30.2 in Calm   3 mph 79 % 0 in
21:32 38.7 °F 33.1 °F 30.2 in WNW 1 mph 3 mph 80 % 0 in
21:42 38.1 °F 32.5 °F 30.2 in Calm   2 mph 80 % 0 in
21:52 37.8 °F 32.5 °F 30.2 in NNW 2 mph 2 mph 81 % 0 in
21:57 37.9 °F 32.7 °F 30.2 in Calm   2 mph 81 % 0 in
22:02 37.9 °F 32.4 °F 30.2 in Calm   2 mph 80 % 0 in
22:12 37.8 °F 32.5 °F 30.2 in NNW 1 mph 3 mph 81 % 0 in
22:17 37.6 °F 32.4 °F 30.2 in NNW 1 mph 3 mph 81 % 0 in
22:22 37.2 °F 32 °F 30.2 in NW 1 mph 3 mph 81 % 0 in
22:32 37.6 °F 32.4 °F 30.2 in Calm   2 mph 81 % 0 in
22:37 37.8 °F 32.5 °F 30.2 in NNW 3 mph 3 mph 81 % 0 in
22:42 37.8 °F 32.2 °F 30.2 in NNW 2 mph 3 mph 80 % 0 in
22:47 37.8 °F 32.2 °F 30.2 in NW 2 mph 3 mph 80 % 0 in
22:52 37.8 °F 32.2 °F 30.2 in NNW 1 mph 3 mph 80 % 0 in
22:57 37.6 °F 32.4 °F 30.2 in North 1 mph 4 mph 81 % 0 in
23:02 37.2 °F 32 °F 30.2 in NNW 2 mph 4 mph 81 % 0 in
23:07 37.2 °F 32.2 °F 30.2 in NNW 1 mph 4 mph 82 % 0 in
23:12 37 °F 32 °F 30.2 in North 1 mph 4 mph 82 % 0 in
23:17 37 °F 32 °F 30.2 in NNW 2 mph 3 mph 82 % 0 in
23:22 37 °F 32 °F 30.2 in NW 2 mph 3 mph 82 % 0 in
23:32 36.9 °F 31.8 °F 30.2 in Calm   4 mph 82 % 0 in
23:37 36.9 °F 31.8 °F 30.2 in NW 3 mph 3 mph 82 % 0 in
23:42 36.9 °F 31.8 °F 30.2 in Calm   3 mph 82 % 0 in
23:52 36.5 °F 31.8 °F 30.2 in NW 1 mph 3 mph 83 % 0 in
Meteo18
Compliments of Weather Underground - 4 mb

Script developed by  Jim McMurry - jmcmurry@mwt.net Adapted for the template by  Wim van der Kuil - Leuven-Template.eu

You find our weather info also at:

European Weather Network

Weather Underground

Equipment we use:

Weather-station
Davis Vue

Weather-program
Meteohub

Weather-server
Raspberry PI 2 B+

Provider
1 and 1

Davis Vue

Meteohub

Raspberry PI 2 B+

1 and 1